• în România
  • Lista ţărilor
  • Pe 7 zile
  • Temperatura apei
  • Hartă satelitară
  • Meteo pe hartă
  • Widget-uri
  • user-avatar
    Intrare

    Meteo pe oră la Ahtopol

    Astăzi, 17 Decembrie, Duminică

    Timp Temperatura Precipitaţii Vânt Presiune Umiditate
    00:00 +13°C° 0,7 mm 5 m/s 755 mmHg 81%
    01:00 +13°C° 0,7 mm 4 m/s 755 mmHg 82%
    02:00 +13°C° 0 mm 2 m/s 755 mmHg 84%
    03:00 +12°C° 1,2 mm 3 m/s 755 mmHg 84%
    04:00 +12°C° 1,2 mm 4 m/s 755 mmHg 84%
    05:00 +12°C° 1,2 mm 5 m/s 755 mmHg 84%
    06:00 +10°C° 2 mm 5 m/s 755 mmHg 85%
    07:00 +10°C° 2 mm 5 m/s 754 mmHg 86%
    08:00 +9°C° 2 mm 5 m/s 754 mmHg 87%
    09:00 +9°C° 2,2 mm 5 m/s 754 mmHg 88%
    10:00 +9°C° 2,2 mm 5 m/s 754 mmHg 89%
    11:00 +9°C° 2,2 mm 5 m/s 754 mmHg 91%
    12:00 +9°C° 2,9 mm 5 m/s 754 mmHg 91%
    13:00 +9°C° 2,9 mm 5 m/s 753 mmHg 91%
    14:00 +9°C° 2,9 mm 6 m/s 753 mmHg 90%
    15:00 +8°C° 1,2 mm 5 m/s 753 mmHg 89%
    16:00 +8°C° 1,2 mm 5 m/s 753 mmHg 88%
    17:00 +7°C° 1,2 mm 5 m/s 754 mmHg 87%
    18:00 +7°C° 0,1 mm 5 m/s 754 mmHg 86%
    19:00 +6°C° 0,1 mm 5 m/s 755 mmHg 85%
    20:00 +5°C° 0,1 mm 6 m/s 756 mmHg 84%
    21:00 +5°C° 0 mm 6 m/s 757 mmHg 84%
    22:00 +5°C° 0 mm 5 m/s 757 mmHg 84%
    23:00 +5°C° 0 mm 5 m/s 758 mmHg 83%

    Mâine, 18 Decembrie, Luni

    Timp Temperatura Precipitaţii Vânt Presiune Umiditate
    00:00 +3°C° 0 mm 5 m/s 759 mmHg 84%
    01:00 +3°C° 0 mm 5 m/s 759 mmHg 85%
    02:00 +3°C° 0 mm 4 m/s 760 mmHg 86%
    03:00 +3°C° 0 mm 4 m/s 760 mmHg 86%
    04:00 +3°C° 0 mm 4 m/s 761 mmHg 87%
    05:00 +2°C° 0 mm 3 m/s 761 mmHg 88%
    06:00 +2°C° 0 mm 3 m/s 761 mmHg 88%
    07:00 +2°C° 0 mm 3 m/s 762 mmHg 88%
    08:00 +2°C° 0 mm 3 m/s 762 mmHg 88%
    09:00 +3°C° 0 mm 3 m/s 762 mmHg 83%
    10:00 +4°C° 0 mm 3 m/s 763 mmHg 78%
    11:00 +5°C° 0 mm 3 m/s 763 mmHg 73%
    12:00 +7°C° 0 mm 2 m/s 762 mmHg 72%
    13:00 +7°C° 0 mm 2 m/s 762 mmHg 70%
    14:00 +7°C° 0 mm 2 m/s 762 mmHg 69%
    15:00 +7°C° 0 mm 3 m/s 762 mmHg 71%
    16:00 +5°C° 0 mm 3 m/s 762 mmHg 74%
    17:00 +5°C° 0 mm 3 m/s 762 mmHg 77%
    18:00 +5°C° 0,1 mm 3 m/s 762 mmHg 78%
    19:00 +4°C° 0,1 mm 4 m/s 762 mmHg 80%
    20:00 +4°C° 0,1 mm 4 m/s 762 mmHg 81%
    21:00 +3°C° 0,2 mm 5 m/s 762 mmHg 81%
    22:00 +3°C° 0,2 mm 5 m/s 762 mmHg 81%
    23:00 +3°C° 0,2 mm 6 m/s 762 mmHg 81%

    Poimâine, 19 Decembrie, Marţi

    Timp Temperatura Precipitaţii Vânt Presiune Umiditate
    00:00 +3°C° 0,6 mm 6 m/s 762 mmHg 82%
    01:00 +2°C° 0,6 mm 7 m/s 762 mmHg 82%
    02:00 +2°C° 0,6 mm 7 m/s 762 mmHg 83%
    03:00 +1°C° 0,6 mm 8 m/s 762 mmHg 84%
    04:00 +1°C° 0,6 mm 8 m/s 762 mmHg 85%
    05:00 +1°C° 0,6 mm 8 m/s 761 mmHg 86%
    06:00 0°C° 1,2 mm 8 m/s 762 mmHg 88%
    07:00 0°C° 1,2 mm 8 m/s 762 mmHg 89%
    08:00 0°C° 1,2 mm 8 m/s 763 mmHg 90%
    09:00 -1°C° 1 mm 8 m/s 763 mmHg 90%
    10:00 -1°C° 1 mm 9 m/s 764 mmHg 91%
    11:00 -1°C° 1 mm 9 m/s 764 mmHg 91%
    12:00 -1°C° 0,4 mm 9 m/s 764 mmHg 90%
    13:00 -1°C° 0,4 mm 9 m/s 764 mmHg 89%
    14:00 -1°C° 0,4 mm 9 m/s 764 mmHg 89%
    15:00 -1°C° 0,3 mm 8 m/s 765 mmHg 88%
    16:00 -1°C° 0,3 mm 8 m/s 765 mmHg 88%
    17:00 -1°C° 0,3 mm 7 m/s 765 mmHg 88%
    18:00 -1°C° 0,4 mm 7 m/s 766 mmHg 88%
    19:00 -2°C° 0,4 mm 7 m/s 766 mmHg 89%
    20:00 -2°C° 0,4 mm 7 m/s 767 mmHg 89%
    21:00 -2°C° 0,3 mm 7 m/s 767 mmHg 89%
    22:00 -3°C° 0,3 mm 7 m/s 767 mmHg 90%
    23:00 -3°C° 0,3 mm 7 m/s 767 mmHg 91%

    20 Decembrie, Miercuri

    Timp Temperatura Precipitaţii Vânt Presiune Umiditate
    00:00 -3°C° 0,4 mm 7 m/s 767 mmHg 91%
    01:00 -3°C° 0,4 mm 7 m/s 767 mmHg 91%
    02:00 -3°C° 0,4 mm 7 m/s 767 mmHg 92%
    03:00 -3°C° 0,5 mm 6 m/s 768 mmHg 92%
    04:00 -3°C° 0,5 mm 6 m/s 768 mmHg 92%
    05:00 -3°C° 0,5 mm 6 m/s 768 mmHg 92%
    06:00 -3°C° 0,4 mm 6 m/s 768 mmHg 92%
    07:00 -4°C° 0,4 mm 5 m/s 769 mmHg 92%
    08:00 -4°C° 0,4 mm 5 m/s 769 mmHg 91%
    09:00 -2°C° 0,2 mm 5 m/s 769 mmHg 90%
    10:00 -2°C° 0,2 mm 5 m/s 769 mmHg 88%
    11:00 -1°C° 0,2 mm 4 m/s 770 mmHg 87%
    12:00 -1°C° 0 mm 4 m/s 770 mmHg 87%
    13:00 -1°C° 0 mm 4 m/s 770 mmHg 87%
    14:00 0°C° 0 mm 4 m/s 770 mmHg 87%
    15:00 -1°C° 0 mm 4 m/s 770 mmHg 88%
    16:00 -1°C° 0 mm 3 m/s 770 mmHg 89%
    17:00 -2°C° 0 mm 3 m/s 770 mmHg 89%
    18:00 -4°C° 0 mm 3 m/s 771 mmHg 90%
    19:00 -4°C° 0 mm 3 m/s 771 mmHg 90%
    20:00 -4°C° 0 mm 3 m/s 771 mmHg 91%
    21:00 -3°C° 0 mm 2 m/s 772 mmHg 90%
    22:00 -4°C° 0 mm 2 m/s 772 mmHg 90%
    23:00 -4°C° 0 mm 2 m/s 772 mmHg 90%

    21 Decembrie, Joi

    Timp Temperatura Precipitaţii Vânt Presiune Umiditate
    00:00 -4°C° 0 mm 2 m/s 772 mmHg 89%
    01:00 -4°C° 0 mm 2 m/s 772 mmHg 89%
    02:00 -4°C° 0 mm 2 m/s 772 mmHg 88%
    03:00 -4°C° 0 mm 2 m/s 772 mmHg 87%
    04:00 -4°C° 0 mm 2 m/s 772 mmHg 87%
    05:00 -4°C° 0 mm 2 m/s 772 mmHg 86%
    06:00 -4°C° 0 mm 2 m/s 772 mmHg 85%
    07:00 -4°C° 0 mm 2 m/s 772 mmHg 85%
    08:00 -4°C° 0 mm 2 m/s 772 mmHg 84%
    09:00 -3°C° 0 mm 2 m/s 772 mmHg 82%
    10:00 -1°C° 0 mm 2 m/s 772 mmHg 80%
    11:00 +1°C° 0 mm 2 m/s 772 mmHg 78%
    12:00 +1°C° 0 mm 2 m/s 771 mmHg 79%
    13:00 +2°C° 0 mm 2 m/s 770 mmHg 80%
    14:00 +2°C° 0 mm 2 m/s 770 mmHg 81%
    15:00 +1°C° 0 mm 2 m/s 770 mmHg 83%
    16:00 -1°C° 0 mm 2 m/s 770 mmHg 85%
    17:00 -2°C° 0 mm 2 m/s 769 mmHg 88%
    18:00 -2°C° 0 mm 2 m/s 770 mmHg 87%
    19:00 -3°C° 0 mm 2 m/s 770 mmHg 86%
    20:00 -3°C° 0 mm 2 m/s 770 mmHg 85%
    21:00 -3°C° 0 mm 2 m/s 770 mmHg 85%
    22:00 -3°C° 0 mm 2 m/s 770 mmHg 84%
    23:00 -4°C° 0 mm 2 m/s 769 mmHg 83%

    22 Decembrie, Vineri

    Timp Temperatura Precipitaţii Vânt Presiune Umiditate
    00:00 -5°C° 0 mm 3 m/s 769 mmHg 82%
    01:00 -5°C° 0 mm 3 m/s 769 mmHg 81%
    02:00 -5°C° 0 mm 3 m/s 769 mmHg 81%
    03:00 -5°C° 0 mm 3 m/s 768 mmHg 80%
    04:00 -5°C° 0 mm 3 m/s 768 mmHg 80%
    05:00 -5°C° 0 mm 3 m/s 768 mmHg 80%
    06:00 -5°C° 0 mm 3 m/s 768 mmHg 79%
    07:00 -4°C° 0 mm 3 m/s 768 mmHg 79%
    08:00 -4°C° 0 mm 3 m/s 768 mmHg 78%
    09:00 -2°C° 0 mm 3 m/s 768 mmHg 77%
    10:00 0°C° 0 mm 3 m/s 768 mmHg 76%
    11:00 +1°C° 0 mm 3 m/s 767 mmHg 75%
    12:00 +1°C° 0 mm 3 m/s 767 mmHg 77%
    13:00 +2°C° 0 mm 3 m/s 766 mmHg 79%
    14:00 +2°C° 0 mm 3 m/s 766 mmHg 81%
    15:00 +1°C° 0 mm 3 m/s 766 mmHg 82%
    16:00 0°C° 0 mm 3 m/s 766 mmHg 84%
    17:00 -1°C° 0 mm 3 m/s 766 mmHg 85%
    18:00 -1°C° 0 mm 2 m/s 766 mmHg 85%
    19:00 -1°C° 0 mm 2 m/s 766 mmHg 84%
    20:00 -1°C° 0 mm 2 m/s 766 mmHg 84%
    21:00 -1°C° 0 mm 2 m/s 765 mmHg 83%
    22:00 -1°C° 0 mm 2 m/s 765 mmHg 83%
    23:00 -1°C° 0 mm 2 m/s 765 mmHg 82%
    Arată mai mult